SCP
0 0 0 0 0 0 0 0 0 0 0 0 0 0 0 0 0 0 0 0 0 0 0 0 0 0 0 0 0 0 0 0 0 0 0 0 0 0 0 0 0 0 0
0 0 0 0 0 0 0 0 0 0 0 0 0 0 0 0 0 0 0 0 0 0 0 0 0 0 0 0 0 0 0 0 -0 -0 0 0 0 0 0 0 0 0 0
0 0 0 0 0 0 0 0 0 0 0 0 0 0 0 0 0 0 0 0 0 0 0 0 0 0 0 0 0 0 0 0 -0 -0 0 0 0 0 0 0 0 0 0
0 -0 -0 0 0 0 0 0 0 0 0 0 0 0 0 0 0 0 0 0 0 0 0 0 0 0 0 0 0 0 0 0 0 0 0 0 0 0 0 0 0 0 0
0 -0 -0 -0 -0 0 0 0 0 0 0 0 0 0 0 0 0 0 0 0 0 0 0 0 0 0 0 0 0 0 0 0 0 0 0 0 0 0 0 0 0 0 0
0 -0 -0 0 0 0 0 0 0 0 0 0 0 0 0 0 0 0 0 0 0 0 0 0 0 0 0 0 0 0 0 0 0 0 0 0 0 0 0 0 0 0 0
0 0 0 0 0 0 0 0 0 0 0 0 0 0 0 0 0 0 0 0 0 0 0 0 0 0 0 0 0 0 0 0 0 0 0 0 0 0 0 0 0 0 0
0 0 0 0 0 0 0 0 0 0 0 0 0 0 0 0 0 0 0 0 0 0 0 0 0 0 0 1 1 1 0 0 0 0 0 0 0 0 0 0 0 0 0
0 0 0 0 0 0 0 0 0 0 0 0 0 0 0 0 0 0 0 0 0 0 0 0 0 0 0 0 1 1 0 0 0 0 0 0 0 0 0 -0 0 0 0
0 0 0 0 0 0 0 0 0 0 0 0 0 0 0 0 0 0 0 0 0 0 0 0 0 0 0 0 0 1 1 0 0 0 0 0 0 0 0 -0 -0 -0 0
0 0 0 0 0 0 0 0 0 0 0 0 0 0 0 0 0 0 0 0 0 0 0 0 0 0 0 1 1 0 0 0 0 0 0 0 0 0 0 -0 -0 -0 -0
0 0 0 0 0 0 0 0 0 0 0 0 0 0 0 0 0 0 0 0 0 0 0 0 0 0 0 0 0 0 0 0 0 0 0 0 0 0 0 0 0 0 -0
0 0 0 0 0 0 0 0 0 0 0 0 0 0 0 0 0 0 0 0 0 0 0 0 0 0 0 0 0 0 0 0 0 0 0 0 0 0 0 0 0 0 0
0 0 0 0 0 0 0 0 0 0 0 0 0 0 0 0 0 0 0 0 0 0 0 0 0 0 0 0 0 0 0 0 0 0 0 0 0 0 0 0 0 0 0
-0 -0 -0 0 0 0 0 0 0 0 0 0 0 0 0 0 0 -0 -0 -0 0 0 0 0 0 0 0 0 0 0 0 0 0 0 0 0 0 1 0 0 0 0 0
-0 -0 -0 0 0 0 0 0 0 0 0 0 0 0 0 0 0 0 0 0 0 0 0 0 0 0 0 0 0 0 0 0 0 0 0 0 0 0 0 0 0 0 0
-0 -0 -0 -0 0 0 0 0 0 0 0 0 0 0 0 0 0 0 0 0 0 0 0 0 0 0 0 0 0 0 0 0 0 0 0 0 0 0 0 0 0 0 0
-0 -0 -0 -0 0 0 0 0 0 0 0 0 0 0 0 0 0 0 0 0 0 0 0 0 0 0 0 0 0 0 0 -0 -0 -0 0 0 0 0 0 0 0 0 0
0 0 -0 -0 0 0 0 0 0 0 0 0 0 0 0 0 0 0 0 0 0 0 0 0 0 0 0 0 0 0 0 0 0 0 -0 0 0 0 0 0 0 0 0
0 0 -0 -0 -0 0 0 0 0 0 0 0 0 0 0 0 0 0 0 0 0 0 0 0 0 0 0 0 0 0 0 0 0 0 0 0 0 0 0 0 0 0 0
0 0 0 -0 -0 0 0 0 0 0 0 0 0 0 0 0 0 0 0 0 0 0 0 0 0 0 0 0 0 0 0 0 0 0 0 0 0 0 0 0 0 0 0
0 0 0 0 0 0 0 0 0 0 0 0 0 0 0 0 0 0 0 0 0 0 0 0 0 0 0 0 0 0 0 0 0 0 0 0 0 0 0 0 0 0 0
0 0 0 0 0 0 0 0 0 0 0 0 0 0 0 0 0 0 0 0 0 0 0 0 0 0 0 0 0 0 0 0 0 0 0 0 0 0 0 0 0 0 0
0 0 0 0 0 0 0 0 0 0 0 0 0 0 0 0 0 0 0 0 0 0 0 0 0 0 0 0 0 0 0 0 0 0 0 0 0 0 0 0 0 0 0
0 0 0 0 0 0 0 0 0 0 0 0 0 0 0 0 0 0 0 0 0 0 0 0 0 0 0 0 0 0 0 0 0 0 0 0 0 0 0 0 0 0 0
0 0 0 0 0 0 0 0 0 0 0 0 0 0 0 0 0 0 0 0 0 0 0 0 0 0 0 0 0 0 0 0 0 0 0 0 0 0 0 0 0 0 0
Wind_Speed_500mb
16 15 14 13 9 6 4 5 6 7 6 5 4 3 3 2 1 3 4 6 8 10 12 13 13 14 17 19 17 9 1 5 8 5 1 3 5 7 8 8 5 4 4
13 15 13 12 9 6 6 8 10 10 10 10 10 10 10 9 8 5 4 3 3 4 5 5 6 8 11 13 13 11 8 2 6 7 7 5 1 2 3 4 4 4 5
13 15 14 14 14 13 13 14 15 17 18 19 19 18 17 16 14 13 13 11 10 8 7 5 2 2 6 9 10 8 6 6 7 10 13 10 7 4 4 3 1 1 4
15 16 15 13 10 10 10 12 15 20 21 23 25 28 28 26 24 23 20 19 19 18 16 14 11 8 6 7 8 12 10 8 12 13 10 14 14 9 11 11 7 4 2
18 15 13 8 6 9 11 13 15 21 24 28 30 35 33 30 30 30 29 28 27 26 25 24 21 17 12 10 10 11 14 11 6 13 12 13 11 8 10 14 12 8 6
11 11 10 6 7 10 13 14 15 19 24 29 35 36 34 30 32 33 30 31 32 33 32 32 29 25 21 17 15 13 13 12 9 9 9 11 11 12 11 11 12 13 10
11 11 11 12 9 11 14 18 20 18 23 28 33 34 35 35 33 29 30 29 29 32 33 34 36 34 31 26 24 19 17 15 14 19 19 19 17 13 13 13 12 12 12
15 14 15 18 14 13 15 17 19 15 20 26 30 32 32 32 30 32 31 28 30 30 33 36 39 38 39 35 31 31 25 22 19 22 29 22 20 15 10 9 11 16 17
16 14 17 17 12 13 18 16 19 15 19 24 28 33 34 31 31 28 28 27 29 30 32 39 43 46 46 50 45 41 35 30 24 19 23 25 22 15 6 4 5 11 19
11 11 19 22 19 15 11 12 17 17 21 25 30 36 36 37 37 38 34 36 39 40 40 45 45 45 43 48 55 52 46 39 36 24 28 30 27 18 8 2 4 9 9
12 19 22 21 19 17 17 19 21 22 26 30 32 37 39 38 41 42 34 35 41 41 39 41 44 45 43 44 49 55 57 59 48 38 32 34 34 26 18 9 2 8 10
25 31 32 33 32 29 27 26 24 22 25 22 24 34 40 36 33 34 33 33 33 36 39 43 41 40 39 45 48 44 49 61 52 47 31 31 43 36 25 13 6 3 10
37 36 41 41 39 36 32 30 28 23 19 20 18 22 25 31 34 33 37 42 44 44 46 47 46 42 46 42 47 41 47 46 55 48 52 37 48 40 27 22 15 8 5
39 42 41 39 35 32 28 27 25 24 19 14 19 23 29 32 36 46 52 52 52 48 43 41 44 42 39 36 38 34 38 36 47 58 55 49 51 44 33 29 24 17 11
37 42 43 39 34 27 26 20 15 17 20 23 25 29 35 42 49 53 53 52 48 42 38 33 32 29 34 35 35 39 41 38 36 47 50 54 54 56 49 34 30 22 16
43 44 44 45 40 27 16 12 10 9 14 21 28 33 40 45 42 44 47 48 42 38 32 29 29 30 32 37 33 37 29 26 34 39 40 56 55 57 46 43 35 32 25
40 43 53 52 38 25 11 11 9 14 21 27 29 35 39 35 43 49 46 43 41 39 35 31 31 35 35 35 36 33 30 38 30 41 41 41 43 45 48 46 37 35 37
36 45 53 55 35 21 13 12 17 20 23 25 27 29 31 36 43 43 42 42 42 40 38 35 36 32 36 41 40 35 30 26 28 41 20 30 37 53 61 61 60 56 56
33 41 53 55 42 25 19 20 20 22 23 23 24 26 31 38 43 39 40 43 44 44 40 38 35 37 34 30 31 30 28 24 21 20 15 15 24 28 41 42 47 48 43
28 35 45 49 44 30 23 20 21 21 21 20 25 29 35 39 37 39 41 43 43 42 43 39 35 29 30 31 29 24 20 16 13 11 11 11 13 15 14 23 26 24 24
21 29 42 51 49 31 17 18 19 22 22 23 26 29 32 32 35 39 41 41 39 40 42 42 36 30 25 29 28 17 3 6 5 3 0 10 16 18 17 20 21 21 18
16 25 39 48 47 35 25 23 24 24 23 23 26 29 31 34 40 44 45 42 40 38 35 35 34 30 28 28 27 17 12 3 3 2 1 4 5 8 16 17 22 20 17
13 21 32 41 41 33 26 24 23 22 20 19 22 27 32 38 40 41 39 38 36 36 35 35 34 34 33 27 21 16 10 8 20 3 0 2 4 7 11 15 17 18 20
11 15 25 35 34 34 21 22 23 23 23 25 26 29 34 38 39 37 36 35 35 35 34 34 33 32 31 32 24 16 11 14 8 9 4 9 7 6 11 14 16 17 18
7 10 21 31 28 31 18 20 24 23 23 23 22 25 32 37 38 36 34 33 33 36 37 36 33 32 31 31 32 30 22 14 15 16 23 11 14 11 12 15 17 18 21
7 7 16 24 23 29 17 16 19 20 23 25 23 25 32 38 34 36 32 31 33 35 36 36 34 31 29 25 25 26 25 19 17 12 16 21 18 11 11 13 15 17 19
Wind_Direction_500mb
156 144 131 118 113 115 111 82 58 46 40 33 18 12 19 34 96 115 115 113 109 106 101 88 67 48 39 36 34 28 346 217 208 191 180 116 116 105 99 91 157 145 156
149 125 113 95 83 69 41 28 19 12 3 349 333 319 312 309 305 288 260 236 199 159 137 112 73 50 39 36 30 20 7 299 207 233 246 259 314 55 54 87 115 194 190
129 106 90 68 50 36 25 15 6 358 353 351 341 327 313 301 292 286 280 271 265 255 239 226 216 342 359 10 16 8 337 277 272 270 254 245 255 302 330 321 290 21 191
120 91 82 70 56 41 26 12 3 357 349 347 344 338 327 316 306 297 286 278 270 263 257 252 248 239 272 309 340 339 332 268 251 245 246 233 218 284 304 298 282 252 241
102 98 88 77 49 25 14 357 354 355 351 348 347 341 330 319 313 305 297 287 279 274 270 269 266 263 260 279 293 315 327 325 256 224 203 209 222 270 295 295 277 252 239
105 76 53 22 3 3 352 342 339 348 350 350 344 339 335 327 317 302 293 293 292 289 286 283 281 279 274 275 277 275 291 306 266 224 217 216 239 263 288 288 270 254 244
76 49 9 338 329 333 335 332 333 335 347 345 341 342 339 337 332 325 307 294 284 280 278 281 280 274 271 269 270 261 263 278 284 251 231 234 249 266 278 285 262 237 236
45 17 342 330 309 315 319 315 316 315 335 339 343 342 338 335 331 327 315 301 294 287 280 280 272 266 263 262 262 260 247 259 266 262 247 235 237 253 277 301 267 239 237
50 36 10 353 335 328 333 325 323 319 327 331 328 333 333 335 330 327 318 310 303 296 289 294 280 273 266 258 256 251 248 245 259 265 233 228 228 235 272 344 318 261 247
49 20 16 8 351 334 334 323 325 317 315 313 318 328 327 324 320 321 311 304 301 306 304 298 293 279 271 267 264 258 250 246 244 248 229 226 226 224 208 158 17 343 282
23 31 21 17 16 6 338 326 320 306 315 317 321 320 316 323 320 319 324 323 323 323 316 311 296 288 276 272 269 262 249 240 245 234 237 226 222 215 205 211 249 318 305
29 22 17 10 2 350 335 328 322 314 315 320 333 338 331 336 339 337 332 334 331 331 331 330 323 293 275 269 270 262 257 244 239 242 234 238 221 211 202 196 209 286 318
26 13 7 356 348 341 336 335 330 328 321 322 340 354 356 353 345 334 331 327 321 318 315 316 314 312 289 274 265 265 258 250 228 238 238 236 218 209 196 196 203 214 276
3 2 356 352 347 345 344 340 340 333 328 356 9 360 349 341 339 334 331 327 323 319 315 311 303 309 308 282 266 260 257 261 246 244 236 222 214 210 207 204 201 207 223
9 8 5 0 357 356 345 351 17 20 0 3 356 350 345 341 340 338 338 338 336 327 318 314 306 300 305 295 263 273 272 264 259 250 248 218 209 209 214 215 207 215 228
25 24 18 10 9 11 3 353 356 28 18 336 334 345 343 345 351 355 351 348 349 350 336 323 321 315 301 299 299 284 280 268 248 232 217 204 201 207 214 217 222 229 221
32 29 22 14 10 12 16 9 349 346 337 331 343 344 351 1 3 358 359 0 359 358 350 335 308 305 304 306 311 314 310 272 271 235 231 209 211 215 220 230 232 238 236
28 27 22 19 21 15 13 11 353 347 347 349 352 358 2 2 357 0 2 1 358 355 350 340 333 322 303 296 292 296 305 305 301 282 255 217 230 239 242 243 248 255 259
23 23 23 19 27 28 12 358 349 348 350 359 359 358 359 354 355 356 355 354 350 347 347 349 348 339 338 324 304 285 279 291 310 301 287 260 246 258 238 250 246 254 255
19 22 27 28 28 24 14 3 2 3 16 6 360 355 353 356 358 353 350 345 341 338 336 338 343 345 338 343 341 319 276 285 305 303 291 263 253 262 239 216 214 224 224
21 25 23 21 22 26 29 23 20 16 9 1 360 3 3 1 356 349 344 339 338 339 342 340 335 344 347 350 2 13 349 144 95 80 259 252 250 243 245 241 220 207 216
15 20 24 22 20 24 30 25 20 15 11 10 11 9 4 356 352 351 346 345 348 350 348 353 353 352 359 356 360 7 10 258 60 352 228 249 247 223 224 206 204 215 229
8 17 23 21 21 28 35 32 22 11 14 11 14 9 2 356 355 356 2 3 1 0 359 358 359 359 358 1 360 14 346 4 350 263 268 192 186 201 200 195 211 234 246
355 11 21 20 20 24 34 29 26 28 29 21 11 6 2 0 1 4 8 7 4 4 1 0 356 352 353 357 7 349 332 316 343 336 10 329 318 266 242 246 254 260 267
309 6 16 12 15 19 20 26 27 25 22 14 5 3 1 1 2 5 6 6 1 360 356 350 349 348 344 344 347 348 346 327 295 283 293 305 322 300 271 259 256 256 256
267 357 7 9 14 11 14 23 15 15 17 12 8 6 3 0 4 5 3 0 360 0 359 356 350 345 352 355 355 353 344 321 301 308 297 305 316 298 276 262 262 265 269
Wind_Speed_850mb
16 15 14 13 9 6 4 5 6 7 6 5 4 3 3 2 1 3 4 6 8 10 12 13 13 14 17 19 17 9 1 5 8 5 1 3 5 7 8 8 5 4 4
13 15 13 12 9 6 6 8 10 10 10 10 10 10 10 9 8 5 4 3 3 4 5 5 6 8 11 13 13 11 8 2 6 7 7 5 1 2 3 4 4 4 5
13 15 14 14 14 13 13 14 15 17 18 19 19 18 17 16 14 13 13 11 10 8 7 5 2 2 6 9 10 8 6 6 7 10 13 10 7 4 4 3 1 1 4
15 16 15 13 10 10 10 12 15 20 21 23 25 28 28 26 24 23 20 19 19 18 16 14 11 8 6 7 8 12 10 8 12 13 10 14 14 9 11 11 7 4 2
18 15 13 8 6 9 11 13 15 21 24 28 30 35 33 30 30 30 29 28 27 26 25 24 21 17 12 10 10 11 14 11 6 13 12 13 11 8 10 14 12 8 6
11 11 10 6 7 10 13 14 15 19 24 29 35 36 34 30 32 33 30 31 32 33 32 32 29 25 21 17 15 13 13 12 9 9 9 11 11 12 11 11 12 13 10
11 11 11 12 9 11 14 18 20 18 23 28 33 34 35 35 33 29 30 29 29 32 33 34 36 34 31 26 24 19 17 15 14 19 19 19 17 13 13 13 12 12 12
15 14 15 18 14 13 15 17 19 15 20 26 30 32 32 32 30 32 31 28 30 30 33 36 39 38 39 35 31 31 25 22 19 22 29 22 20 15 10 9 11 16 17
16 14 17 17 12 13 18 16 19 15 19 24 28 33 34 31 31 28 28 27 29 30 32 39 43 46 46 50 45 41 35 30 24 19 23 25 22 15 6 4 5 11 19
11 11 19 22 19 15 11 12 17 17 21 25 30 36 36 37 37 38 34 36 39 40 40 45 45 45 43 48 55 52 46 39 36 24 28 30 27 18 8 2 4 9 9
12 19 22 21 19 17 17 19 21 22 26 30 32 37 39 38 41 42 34 35 41 41 39 41 44 45 43 44 49 55 57 59 48 38 32 34 34 26 18 9 2 8 10
25 31 32 33 32 29 27 26 24 22 25 22 24 34 40 36 33 34 33 33 33 36 39 43 41 40 39 45 48 44 49 61 52 47 31 31 43 36 25 13 6 3 10
37 36 41 41 39 36 32 30 28 23 19 20 18 22 25 31 34 33 37 42 44 44 46 47 46 42 46 42 47 41 47 46 55 48 52 37 48 40 27 22 15 8 5
39 42 41 39 35 32 28 27 25 24 19 14 19 23 29 32 36 46 52 52 52 48 43 41 44 42 39 36 38 34 38 36 47 58 55 49 51 44 33 29 24 17 11
37 42 43 39 34 27 26 20 15 17 20 23 25 29 35 42 49 53 53 52 48 42 38 33 32 29 34 35 35 39 41 38 36 47 50 54 54 56 49 34 30 22 16
43 44 44 45 40 27 16 12 10 9 14 21 28 33 40 45 42 44 47 48 42 38 32 29 29 30 32 37 33 37 29 26 34 39 40 56 55 57 46 43 35 32 25
40 43 53 52 38 25 11 11 9 14 21 27 29 35 39 35 43 49 46 43 41 39 35 31 31 35 35 35 36 33 30 38 30 41 41 41 43 45 48 46 37 35 37
36 45 53 55 35 21 13 12 17 20 23 25 27 29 31 36 43 43 42 42 42 40 38 35 36 32 36 41 40 35 30 26 28 41 20 30 37 53 61 61 60 56 56
33 41 53 55 42 25 19 20 20 22 23 23 24 26 31 38 43 39 40 43 44 44 40 38 35 37 34 30 31 30 28 24 21 20 15 15 24 28 41 42 47 48 43
28 35 45 49 44 30 23 20 21 21 21 20 25 29 35 39 37 39 41 43 43 42 43 39 35 29 30 31 29 24 20 16 13 11 11 11 13 15 14 23 26 24 24
21 29 42 51 49 31 17 18 19 22 22 23 26 29 32 32 35 39 41 41 39 40 42 42 36 30 25 29 28 17 3 6 5 3 0 10 16 18 17 20 21 21 18
16 25 39 48 47 35 25 23 24 24 23 23 26 29 31 34 40 44 45 42 40 38 35 35 34 30 28 28 27 17 12 3 3 2 1 4 5 8 16 17 22 20 17
13 21 32 41 41 33 26 24 23 22 20 19 22 27 32 38 40 41 39 38 36 36 35 35 34 34 33 27 21 16 10 8 20 3 0 2 4 7 11 15 17 18 20
11 15 25 35 34 34 21 22 23 23 23 25 26 29 34 38 39 37 36 35 35 35 34 34 33 32 31 32 24 16 11 14 8 9 4 9 7 6 11 14 16 17 18
7 10 21 31 28 31 18 20 24 23 23 23 22 25 32 37 38 36 34 33 33 36 37 36 33 32 31 31 32 30 22 14 15 16 23 11 14 11 12 15 17 18 21
7 7 16 24 23 29 17 16 19 20 23 25 23 25 32 38 34 36 32 31 33 35 36 36 34 31 29 25 25 26 25 19 17 12 16 21 18 11 11 13 15 17 19
Wind_Direction_850mb
156 144 131 118 113 115 111 82 58 46 40 33 18 12 19 34 96 115 115 113 109 106 101 88 67 48 39 36 34 28 346 217 208 191 180 116 116 105 99 91 157 145 156
149 125 113 95 83 69 41 28 19 12 3 349 333 319 312 309 305 288 260 236 199 159 137 112 73 50 39 36 30 20 7 299 207 233 246 259 314 55 54 87 115 194 190
129 106 90 68 50 36 25 15 6 358 353 351 341 327 313 301 292 286 280 271 265 255 239 226 216 342 359 10 16 8 337 277 272 270 254 245 255 302 330 321 290 21 191
120 91 82 70 56 41 26 12 3 357 349 347 344 338 327 316 306 297 286 278 270 263 257 252 248 239 272 309 340 339 332 268 251 245 246 233 218 284 304 298 282 252 241
102 98 88 77 49 25 14 357 354 355 351 348 347 341 330 319 313 305 297 287 279 274 270 269 266 263 260 279 293 315 327 325 256 224 203 209 222 270 295 295 277 252 239
105 76 53 22 3 3 352 342 339 348 350 350 344 339 335 327 317 302 293 293 292 289 286 283 281 279 274 275 277 275 291 306 266 224 217 216 239 263 288 288 270 254 244
76 49 9 338 329 333 335 332 333 335 347 345 341 342 339 337 332 325 307 294 284 280 278 281 280 274 271 269 270 261 263 278 284 251 231 234 249 266 278 285 262 237 236
45 17 342 330 309 315 319 315 316 315 335 339 343 342 338 335 331 327 315 301 294 287 280 280 272 266 263 262 262 260 247 259 266 262 247 235 237 253 277 301 267 239 237
50 36 10 353 335 328 333 325 323 319 327 331 328 333 333 335 330 327 318 310 303 296 289 294 280 273 266 258 256 251 248 245 259 265 233 228 228 235 272 344 318 261 247
49 20 16 8 351 334 334 323 325 317 315 313 318 328 327 324 320 321 311 304 301 306 304 298 293 279 271 267 264 258 250 246 244 248 229 226 226 224 208 158 17 343 282
23 31 21 17 16 6 338 326 320 306 315 317 321 320 316 323 320 319 324 323 323 323 316 311 296 288 276 272 269 262 249 240 245 234 237 226 222 215 205 211 249 318 305
29 22 17 10 2 350 335 328 322 314 315 320 333 338 331 336 339 337 332 334 331 331 331 330 323 293 275 269 270 262 257 244 239 242 234 238 221 211 202 196 209 286 318
26 13 7 356 348 341 336 335 330 328 321 322 340 354 356 353 345 334 331 327 321 318 315 316 314 312 289 274 265 265 258 250 228 238 238 236 218 209 196 196 203 214 276
3 2 356 352 347 345 344 340 340 333 328 356 9 360 349 341 339 334 331 327 323 319 315 311 303 309 308 282 266 260 257 261 246 244 236 222 214 210 207 204 201 207 223
9 8 5 0 357 356 345 351 17 20 0 3 356 350 345 341 340 338 338 338 336 327 318 314 306 300 305 295 263 273 272 264 259 250 248 218 209 209 214 215 207 215 228
25 24 18 10 9 11 3 353 356 28 18 336 334 345 343 345 351 355 351 348 349 350 336 323 321 315 301 299 299 284 280 268 248 232 217 204 201 207 214 217 222 229 221
32 29 22 14 10 12 16 9 349 346 337 331 343 344 351 1 3 358 359 0 359 358 350 335 308 305 304 306 311 314 310 272 271 235 231 209 211 215 220 230 232 238 236
28 27 22 19 21 15 13 11 353 347 347 349 352 358 2 2 357 0 2 1 358 355 350 340 333 322 303 296 292 296 305 305 301 282 255 217 230 239 242 243 248 255 259
23 23 23 19 27 28 12 358 349 348 350 359 359 358 359 354 355 356 355 354 350 347 347 349 348 339 338 324 304 285 279 291 310 301 287 260 246 258 238 250 246 254 255
19 22 27 28 28 24 14 3 2 3 16 6 360 355 353 356 358 353 350 345 341 338 336 338 343 345 338 343 341 319 276 285 305 303 291 263 253 262 239 216 214 224 224
21 25 23 21 22 26 29 23 20 16 9 1 360 3 3 1 356 349 344 339 338 339 342 340 335 344 347 350 2 13 349 144 95 80 259 252 250 243 245 241 220 207 216
15 20 24 22 20 24 30 25 20 15 11 10 11 9 4 356 352 351 346 345 348 350 348 353 353 352 359 356 360 7 10 258 60 352 228 249 247 223 224 206 204 215 229
8 17 23 21 21 28 35 32 22 11 14 11 14 9 2 356 355 356 2 3 1 0 359 358 359 359 358 1 360 14 346 4 350 263 268 192 186 201 200 195 211 234 246
355 11 21 20 20 24 34 29 26 28 29 21 11 6 2 0 1 4 8 7 4 4 1 0 356 352 353 357 7 349 332 316 343 336 10 329 318 266 242 246 254 260 267
309 6 16 12 15 19 20 26 27 25 22 14 5 3 1 1 2 5 6 6 1 360 356 350 349 348 344 344 347 348 346 327 295 283 293 305 322 300 271 259 256 256 256
267 357 7 9 14 11 14 23 15 15 17 12 8 6 3 0 4 5 3 0 360 0 359 356 350 345 352 355 355 353 344 321 301 308 297 305 316 298 276 262 262 265 269